UAL176 PGUM-PTPN

Flight info

Callsign UAL176
Flight time 2h 37m
Altitude 35000
Route FIBSS A222 KRONK BIRUQ
Aircraft B738/M-SDE2E3FGHIRWXY/LB1

Departure

Time 2026-04-22 17:09
Airport Antonio B. Won Pat International Airport (PGUM)

Arrival

Time 2026-04-22 19:47
Airport Pohnpei International Airport (PTPN)
Time Latitude Longitude Altitude Speed Heading
2026-04-22 16:49 13.49390 144.80930 296 ft 0 kts 282°
2026-04-22 17:02 13.49389 144.80939 300 ft 4 kts 293°
2026-04-22 17:02 13.49375 144.80961 299 ft 4 kts 298°
2026-04-22 17:03 13.49364 144.80978 301 ft 3 kts 312°
2026-04-22 17:03 13.49346 144.80999 300 ft 4 kts 309°
2026-04-22 17:03 13.49331 144.81021 298 ft 4 kts 287°
2026-04-22 17:03 13.49330 144.81040 297 ft 1 kts 240°
2026-04-22 17:04 13.49332 144.81044 297 ft 0 kts 240°
2026-04-22 17:05 13.49328 144.81037 297 ft 12 kts 240°
2026-04-22 17:06 13.49251 144.80900 298 ft 23 kts 240°
2026-04-22 17:06 13.49172 144.80759 295 ft 22 kts 243°
2026-04-22 17:06 13.49102 144.80611 299 ft 27 kts 243°
2026-04-22 17:06 13.48964 144.80394 295 ft 45 kts 224°
2026-04-22 17:07 13.48779 144.80072 294 ft 57 kts 244°
2026-04-22 17:07 13.48614 144.79716 287 ft 55 kts 245°
2026-04-22 17:07 13.48458 144.79370 285 ft 52 kts 247°
2026-04-22 17:07 13.48308 144.79049 246 ft 49 kts 245°
2026-04-22 17:08 13.48176 144.78744 283 ft 45 kts 245°
2026-04-22 17:08 13.48040 144.78460 280 ft 37 kts 245°
2026-04-22 17:08 13.47925 144.78412 267 ft 23 kts 130°
2026-04-22 17:08 13.47976 144.78582 268 ft 42 kts 65°
2026-04-22 17:09 13.48194 144.79065 275 ft 105 kts 66°
2026-04-22 17:09 13.48588 144.79919 295 ft 157 kts 66°
2026-04-22 17:09 13.48904 144.80605 624 ft 160 kts 67°
2026-04-22 17:09 13.49239 144.82051 1532 ft 164 kts 98°
2026-04-22 17:10 13.48793 144.83230 1860 ft 191 kts 110°
2026-04-22 17:10 13.48218 144.84553 2065 ft 214 kts 110°
2026-04-22 17:10 13.47586 144.86004 2320 ft 232 kts 111°
2026-04-22 17:10 13.46920 144.87579 2642 ft 249 kts 112°
2026-04-22 17:11 13.46201 144.89237 3275 ft 254 kts 113°
2026-04-22 17:11 13.45477 144.90886 4121 ft 252 kts 113°
2026-04-22 17:11 13.44738 144.92529 4854 ft 257 kts 112°
2026-04-22 17:11 13.44008 144.94225 5628 ft 260 kts 112°
2026-04-22 17:12 13.43275 144.95931 6352 ft 263 kts 112°
2026-04-22 17:12 13.42533 144.97658 7036 ft 266 kts 113°
2026-04-22 17:12 13.41780 144.99415 7685 ft 269 kts 113°
2026-04-22 17:12 13.41019 145.01193 8275 ft 276 kts 113°
2026-04-22 17:13 13.40270 145.02978 9013 ft 275 kts 112°
2026-04-22 17:13 13.39482 145.04754 9847 ft 272 kts 114°
2026-04-22 17:13 13.38714 145.06565 10263 ft 283 kts 113°
2026-04-22 17:13 13.37884 145.08482 10424 ft 304 kts 113°
2026-04-22 17:14 13.37040 145.10545 10597 ft 323 kts 112°
2026-04-22 17:14 13.36104 145.12722 10733 ft 341 kts 113°
2026-04-22 17:14 13.35146 145.14967 10903 ft 355 kts 113°
2026-04-22 17:14 13.34138 145.17305 11312 ft 362 kts 114°
2026-04-22 17:15 13.33454 145.18906 11655 ft 365 kts 113°
2026-04-22 17:15 13.32100 145.22086 12377 ft 369 kts 113°
2026-04-22 17:15 13.31063 145.24518 12899 ft 373 kts 113°
2026-04-22 17:15 13.30013 145.26977 13427 ft 378 kts 113°
2026-04-22 17:16 13.28958 145.29449 13878 ft 383 kts 114°
2026-04-22 17:16 13.27882 145.31966 14391 ft 386 kts 114°
2026-04-22 17:16 13.26795 145.34506 14882 ft 390 kts 114°
2026-04-22 17:16 13.25702 145.37061 15414 ft 392 kts 114°
2026-04-22 17:17 13.24597 145.39642 15866 ft 397 kts 114°
2026-04-22 17:17 13.23479 145.42254 16320 ft 402 kts 114°
2026-04-22 17:17 13.22351 145.44889 16797 ft 406 kts 114°
2026-04-22 17:17 13.21207 145.47561 17194 ft 411 kts 114°
2026-04-22 17:18 13.20067 145.50223 17686 ft 413 kts 114°
2026-04-22 17:18 13.18904 145.52937 18164 ft 417 kts 114°
2026-04-22 17:18 13.17655 145.55640 18509 ft 421 kts 117°
2026-04-22 17:18 13.16428 145.58396 18810 ft 426 kts 115°
2026-04-22 17:19 13.14115 145.64020 19687 ft 428 kts 113°
2026-04-22 17:19 13.11713 145.69672 20393 ft 435 kts 114°
2026-04-22 17:20 13.09286 145.75348 21221 ft 437 kts 114°
2026-04-22 17:20 13.06775 145.81064 21913 ft 443 kts 115°
2026-04-22 17:21 13.05513 145.83960 22160 ft 447 kts 116°
2026-04-22 17:21 13.03063 145.89808 22917 ft 448 kts 115°
2026-04-22 17:22 13.00506 145.95721 23416 ft 456 kts 114°
2026-04-22 17:22 12.99229 145.98688 23827 ft 453 kts 114°
2026-04-22 17:22 12.96677 146.04645 24310 ft 458 kts 115°
2026-04-22 17:23 12.95374 146.07630 24573 ft 460 kts 114°
2026-04-22 17:23 12.92712 146.13638 24973 ft 466 kts 113°
2026-04-22 17:23 12.91486 146.16725 25224 ft 467 kts 112°
2026-04-22 17:24 12.90179 146.19789 25475 ft 468 kts 116°
2026-04-22 17:24 12.88820 146.22789 25681 ft 471 kts 115°
2026-04-22 17:24 12.87512 146.25863 26095 ft 468 kts 113°
2026-04-22 17:24 12.86222 146.28931 26392 ft 468 kts 116°
2026-04-22 17:25 12.84792 146.31947 26552 ft 472 kts 115°
2026-04-22 17:25 12.83911 146.33987 26689 ft 474 kts 113°
2026-04-22 17:25 12.82599 146.37090 26915 ft 476 kts 115°
2026-04-22 17:25 12.81208 146.40185 27068 ft 480 kts 115°
2026-04-22 17:26 12.79857 146.43321 27250 ft 482 kts 113°
2026-04-22 17:26 12.78580 146.46491 27560 ft 481 kts 112°
2026-04-22 17:26 12.77241 146.49636 27768 ft 483 kts 115°
2026-04-22 17:26 12.75943 146.52817 28010 ft 484 kts 113°
2026-04-22 17:27 12.74614 146.55985 28264 ft 484 kts 114°
2026-04-22 17:27 12.73227 146.59149 28454 ft 487 kts 116°
2026-04-22 17:27 12.71813 146.62306 28654 ft 488 kts 112°
2026-04-22 17:27 12.70453 146.65493 28865 ft 489 kts 115°
2026-04-22 17:28 12.69018 146.68616 29055 ft 491 kts 116°
2026-04-22 17:28 12.67580 146.71796 29297 ft 491 kts 114°
2026-04-22 17:28 12.66210 146.75004 29511 ft 492 kts 115°
2026-04-22 17:28 12.64820 146.78214 29666 ft 495 kts 115°
2026-04-22 17:29 12.63388 146.81424 29883 ft 495 kts 115°
2026-04-22 17:29 12.62014 146.84654 30111 ft 495 kts 113°
2026-04-22 17:29 12.60616 146.87890 30250 ft 497 kts 117°
2026-04-22 17:29 12.59084 146.91049 30538 ft 494 kts 117°
2026-04-22 17:30 12.57647 146.94227 30902 ft 491 kts 114°
2026-04-22 17:30 12.56274 146.97435 31031 ft 494 kts 114°
2026-04-22 17:30 12.54927 147.00668 31257 ft 493 kts 114°
2026-04-22 17:30 12.53576 147.03882 31602 ft 491 kts 115°
2026-04-22 17:31 12.52210 147.07082 31809 ft 492 kts 115°
2026-04-22 17:31 12.50811 147.10280 32078 ft 490 kts 115°
2026-04-22 17:31 12.49414 147.13449 32403 ft 488 kts 117°
2026-04-22 17:31 12.48016 147.16561 32608 ft 489 kts 114°
2026-04-22 17:32 12.46660 147.19751 32856 ft 488 kts 114°
2026-04-22 17:32 12.45249 147.22910 33181 ft 486 kts 115°
2026-04-22 17:32 12.43882 147.26081 33343 ft 489 kts 111°
2026-04-22 17:32 12.42643 147.29312 33709 ft 485 kts 114°
2026-04-22 17:33 12.41295 147.32466 34040 ft 483 kts 116°
2026-04-22 17:33 12.39885 147.35584 34215 ft 484 kts 115°
2026-04-22 17:33 12.38433 147.38690 34388 ft 484 kts 117°
2026-04-22 17:33 12.37011 147.41809 34606 ft 484 kts 114°
2026-04-22 17:34 12.35677 147.44977 34804 ft 484 kts 115°
2026-04-22 17:34 12.34318 147.48094 34903 ft 476 kts 117°
2026-04-22 17:34 12.31561 147.54255 34948 ft 479 kts 115°
2026-04-22 17:35 12.28806 147.60518 34954 ft 486 kts 115°
2026-04-22 17:35 12.26017 147.66856 34954 ft 489 kts 115°
2026-04-22 17:36 12.23238 147.73173 34941 ft 491 kts 115°
2026-04-22 17:36 12.20448 147.79512 34927 ft 485 kts 115°
2026-04-22 17:37 12.17686 147.85782 34941 ft 481 kts 115°
2026-04-22 17:37 12.14942 147.92005 34939 ft 480 kts 115°
2026-04-22 17:38 12.12203 147.98214 34940 ft 479 kts 115°
2026-04-22 17:38 12.09462 148.04420 34944 ft 479 kts 115°
2026-04-22 17:39 12.06709 148.10653 34946 ft 481 kts 115°
2026-04-22 17:40 12.02563 148.20028 34941 ft 485 kts 115°
2026-04-22 17:40 11.99797 148.26277 34946 ft 487 kts 115°
2026-04-22 17:41 11.96999 148.32594 34941 ft 488 kts 115°
2026-04-22 17:41 11.94187 148.38939 34941 ft 489 kts 115°
2026-04-22 17:42 11.91394 148.45236 34939 ft 490 kts 115°
2026-04-22 17:42 11.88584 148.51567 34942 ft 489 kts 115°
2026-04-22 17:43 11.85773 148.57896 34938 ft 489 kts 115°
2026-04-22 17:43 11.82970 148.64204 34934 ft 487 kts 115°
2026-04-22 17:44 11.80172 148.70496 34934 ft 486 kts 115°
2026-04-22 17:44 11.77373 148.76786 34934 ft 485 kts 115°
2026-04-22 17:45 11.74624 148.83069 34937 ft 485 kts 114°
2026-04-22 17:45 11.71957 148.89351 34937 ft 484 kts 114°
2026-04-22 17:46 11.69286 148.95655 34937 ft 484 kts 114°
2026-04-22 17:46 11.66605 149.01952 34934 ft 484 kts 114°
2026-04-22 17:47 11.63911 149.08257 34936 ft 484 kts 114°
2026-04-22 17:47 11.61234 149.14516 34938 ft 484 kts 114°
2026-04-22 17:48 11.58976 149.19792 34938 ft 484 kts 114°
2026-04-22 17:48 11.55837 149.27121 34936 ft 485 kts 114°
2026-04-22 17:49 11.53138 149.33418 34931 ft 485 kts 114°
2026-04-22 17:49 11.50437 149.39718 34938 ft 485 kts 114°
2026-04-22 17:50 11.47730 149.46025 34936 ft 485 kts 114°
2026-04-22 17:50 11.45022 149.52331 34935 ft 485 kts 114°
2026-04-22 17:51 11.42333 149.58589 34935 ft 485 kts 114°
2026-04-22 17:51 11.39622 149.64893 34933 ft 485 kts 114°
2026-04-22 17:52 11.36913 149.71188 34938 ft 485 kts 114°
2026-04-22 17:52 11.34205 149.77477 34939 ft 484 kts 114°
2026-04-22 17:53 11.31498 149.83759 34932 ft 484 kts 114°
2026-04-22 17:53 11.28789 149.90042 34933 ft 483 kts 114°
2026-04-22 17:54 11.26104 149.96265 34939 ft 482 kts 114°
2026-04-22 17:54 11.23399 150.02529 34928 ft 482 kts 114°
2026-04-22 17:55 11.21156 150.07721 34934 ft 482 kts 114°
2026-04-22 17:55 11.17999 150.15024 34938 ft 481 kts 114°
2026-04-22 17:56 11.15290 150.21284 34934 ft 482 kts 114°
2026-04-22 17:56 11.12602 150.27494 34935 ft 482 kts 114°
2026-04-22 17:57 11.09895 150.33743 34941 ft 482 kts 114°
2026-04-22 17:57 11.07074 150.39930 34937 ft 481 kts 117°
2026-04-22 17:58 11.04383 150.46157 34936 ft 480 kts 116°
2026-04-22 17:58 11.01747 150.52406 34939 ft 480 kts 111°
2026-04-22 17:59 10.99130 150.58667 34924 ft 480 kts 116°
2026-04-22 17:59 10.96353 150.64849 34921 ft 481 kts 113°
2026-04-22 18:00 10.94214 150.70075 34936 ft 481 kts 114°
2026-04-22 18:00 10.91038 150.77301 34928 ft 482 kts 115°
2026-04-22 18:01 10.88286 150.83513 34938 ft 482 kts 115°
2026-04-22 18:01 10.85549 150.89748 34937 ft 482 kts 114°
2026-04-22 18:02 10.82793 150.95972 34927 ft 481 kts 116°
2026-04-22 18:02 10.80191 151.02238 34927 ft 480 kts 114°
2026-04-22 18:03 10.77469 151.08433 34925 ft 479 kts 116°
2026-04-22 18:03 10.74693 151.14595 34924 ft 479 kts 114°
2026-04-22 18:04 10.71936 151.20764 34919 ft 478 kts 115°
2026-04-22 18:04 10.69172 151.26910 34930 ft 478 kts 116°
2026-04-22 18:05 10.66507 151.33098 34938 ft 478 kts 114°
2026-04-22 18:05 10.63881 151.39272 34925 ft 479 kts 114°
2026-04-22 18:06 10.61165 151.45452 34927 ft 479 kts 115°
2026-04-22 18:06 10.58497 151.51659 34930 ft 478 kts 116°
2026-04-22 18:07 10.56215 151.56793 34941 ft 479 kts 115°
2026-04-22 18:07 10.53008 151.63954 34954 ft 478 kts 115°
2026-04-22 18:08 10.50341 151.70156 34942 ft 479 kts 115°
2026-04-22 18:08 10.47620 151.76331 34917 ft 479 kts 114°
2026-04-22 18:09 10.44917 151.82509 34923 ft 478 kts 115°
2026-04-22 18:09 10.42173 151.88663 34925 ft 478 kts 116°
2026-04-22 18:10 10.39384 151.94781 34927 ft 478 kts 114°
2026-04-22 18:10 10.36817 152.01007 34926 ft 478 kts 115°
2026-04-22 18:11 10.34500 152.06102 34938 ft 477 kts 116°
2026-04-22 18:11 10.31772 152.12249 34929 ft 478 kts 114°
2026-04-22 18:12 10.29071 152.18415 34927 ft 478 kts 115°
2026-04-22 18:12 10.26322 152.24558 34938 ft 478 kts 115°
2026-04-22 18:13 10.23668 152.30756 34921 ft 478 kts 116°
2026-04-22 18:13 10.20875 152.36831 34930 ft 478 kts 115°
2026-04-22 18:14 10.18148 152.42991 34924 ft 478 kts 116°
2026-04-22 18:14 10.15456 152.49152 34938 ft 477 kts 113°
2026-04-22 18:15 10.12823 152.55353 34948 ft 477 kts 115°
2026-04-22 18:15 10.10091 152.61509 34920 ft 478 kts 115°
2026-04-22 18:16 10.07384 152.67680 34939 ft 478 kts 114°
2026-04-22 18:16 10.04593 152.73744 34937 ft 477 kts 118°
2026-04-22 18:17 10.01847 152.79873 34933 ft 477 kts 113°
2026-04-22 18:17 9.99169 152.86032 34933 ft 476 kts 117°
2026-04-22 18:18 9.96400 152.92143 34920 ft 476 kts 113°
2026-04-22 18:18 9.93777 152.98315 34925 ft 475 kts 115°
2026-04-22 18:19 9.90937 153.04375 34947 ft 474 kts 116°
2026-04-22 18:19 9.88343 153.10482 34938 ft 475 kts 114°
2026-04-22 18:20 9.85633 153.16585 34935 ft 474 kts 115°
2026-04-22 18:20 9.82864 153.22663 34937 ft 475 kts 115°
2026-04-22 18:21 9.80120 153.28749 34927 ft 475 kts 115°
2026-04-22 18:21 9.77431 153.34860 34932 ft 474 kts 114°
2026-04-22 18:22 9.74706 153.40939 34931 ft 473 kts 115°
2026-04-22 18:22 9.71915 153.46967 34929 ft 471 kts 115°
2026-04-22 18:23 9.69288 153.53001 34932 ft 470 kts 115°
2026-04-22 18:23 9.66596 153.59033 34932 ft 469 kts 115°
2026-04-22 18:24 9.62556 153.68043 34931 ft 468 kts 115°
2026-04-22 18:25 9.58520 153.77047 34933 ft 467 kts 115°
2026-04-22 18:25 9.55850 153.83003 34934 ft 467 kts 115°
2026-04-22 18:26 9.51813 153.92002 34933 ft 468 kts 115°
2026-04-22 18:26 9.49119 153.98005 34935 ft 468 kts 115°
2026-04-22 18:27 9.46426 154.04001 34931 ft 468 kts 115°
2026-04-22 18:27 9.43729 154.10004 34932 ft 468 kts 115°
2026-04-22 18:28 9.41048 154.15968 34934 ft 468 kts 115°
2026-04-22 18:28 9.37909 154.21722 34943 ft 467 kts 124°
2026-04-22 18:29 9.34221 154.27153 34933 ft 467 kts 125°
2026-04-22 18:29 9.30520 154.32555 34932 ft 467 kts 125°
2026-04-22 18:30 9.25033 154.40704 34933 ft 467 kts 124°
2026-04-22 18:31 9.21387 154.46161 34936 ft 467 kts 124°
2026-04-22 18:31 9.17764 154.51584 34930 ft 467 kts 124°
2026-04-22 18:32 9.14117 154.57040 34928 ft 467 kts 124°
2026-04-22 18:32 9.10473 154.62487 34933 ft 467 kts 124°
2026-04-22 18:33 9.06831 154.67927 34934 ft 467 kts 124°
2026-04-22 18:33 9.03190 154.73364 34926 ft 467 kts 124°
2026-04-22 18:34 8.99551 154.78796 34928 ft 466 kts 124°
2026-04-22 18:34 8.95933 154.84193 34927 ft 466 kts 124°
2026-04-22 18:35 8.92292 154.89623 34931 ft 466 kts 124°
2026-04-22 18:35 8.88649 154.95055 34928 ft 466 kts 124°
2026-04-22 18:36 8.85014 155.00472 34929 ft 465 kts 124°
2026-04-22 18:36 8.81380 155.05884 34924 ft 465 kts 124°
2026-04-22 18:37 8.77753 155.11285 34928 ft 464 kts 124°
2026-04-22 18:37 8.74739 155.15770 34924 ft 463 kts 124°
2026-04-22 18:38 8.70506 155.22067 34928 ft 463 kts 124°
2026-04-22 18:38 8.66909 155.27417 34925 ft 462 kts 124°
2026-04-22 18:39 8.61483 155.35482 34928 ft 462 kts 124°
2026-04-22 18:39 8.57831 155.40819 34934 ft 461 kts 124°
2026-04-22 18:40 8.54265 155.46205 34933 ft 461 kts 123°
2026-04-22 18:40 8.50709 155.51590 34929 ft 461 kts 124°
2026-04-22 18:41 8.47078 155.56925 34929 ft 460 kts 125°
2026-04-22 18:41 8.43448 155.62266 34921 ft 461 kts 124°
2026-04-22 18:42 8.39834 155.67609 34929 ft 460 kts 124°
2026-04-22 18:42 8.36223 155.72961 34919 ft 461 kts 124°
2026-04-22 18:43 8.32638 155.78275 34932 ft 460 kts 125°
2026-04-22 18:43 8.29035 155.83623 34927 ft 460 kts 124°
2026-04-22 18:44 8.25393 155.88934 34927 ft 459 kts 123°
2026-04-22 18:44 8.21860 155.94313 34921 ft 459 kts 124°
2026-04-22 18:45 8.18251 155.99623 34926 ft 458 kts 124°
2026-04-22 18:45 8.14646 156.04917 34919 ft 457 kts 124°
2026-04-22 18:46 8.11054 156.10211 34924 ft 457 kts 124°
2026-04-22 18:46 8.07498 156.15465 34918 ft 456 kts 124°
2026-04-22 18:47 8.03916 156.20756 34926 ft 456 kts 124°
2026-04-22 18:47 8.00330 156.26039 34917 ft 456 kts 126°
2026-04-22 18:48 7.99772 156.26819 34912 ft 457 kts 125°
2026-04-22 19:22 7.98532 156.28644 34902 ft 457 kts 124°
2026-04-22 19:23 7.94968 156.33956 34926 ft 457 kts 124°
2026-04-22 19:23 7.93221 156.36539 34772 ft 460 kts 124°
2026-04-22 19:23 7.91396 156.39230 34183 ft 464 kts 124°
2026-04-22 19:23 7.89575 156.41912 33517 ft 463 kts 124°
2026-04-22 19:24 7.87750 156.44599 32796 ft 464 kts 124°
2026-04-22 19:24 7.85925 156.47286 32069 ft 465 kts 124°
2026-04-22 19:24 7.84094 156.49983 31328 ft 467 kts 125°
2026-04-22 19:24 7.82240 156.52676 30550 ft 469 kts 126°
2026-04-22 19:25 7.80389 156.55386 29987 ft 467 kts 124°
2026-04-22 19:25 7.78564 156.58089 29319 ft 465 kts 124°
2026-04-22 19:25 7.76820 156.60770 28741 ft 460 kts 124°
2026-04-22 19:25 7.75011 156.63416 28175 ft 456 kts 125°
2026-04-22 19:26 7.73213 156.66032 27633 ft 452 kts 125°
2026-04-22 19:26 7.71434 156.68634 27092 ft 448 kts 125°
2026-04-22 19:26 7.69678 156.71215 26551 ft 445 kts 125°
2026-04-22 19:26 7.67934 156.73780 26012 ft 442 kts 124°
2026-04-22 19:27 7.66213 156.76316 25463 ft 440 kts 124°
2026-04-22 19:27 7.64492 156.78850 24924 ft 437 kts 125°
2026-04-22 19:27 7.62777 156.81374 24384 ft 435 kts 124°
2026-04-22 19:27 7.61070 156.83887 23846 ft 434 kts 124°
2026-04-22 19:28 7.59365 156.86395 23279 ft 432 kts 124°
2026-04-22 19:28 7.57668 156.88891 22682 ft 430 kts 124°
2026-04-22 19:28 7.55987 156.91363 22137 ft 426 kts 124°
2026-04-22 19:28 7.54340 156.93785 21613 ft 422 kts 125°
2026-04-22 19:29 7.52686 156.96216 21089 ft 418 kts 125°
2026-04-22 19:29 7.51045 156.98628 20575 ft 415 kts 125°
2026-04-22 19:29 7.49418 157.01019 20061 ft 412 kts 125°
2026-04-22 19:29 7.47800 157.03397 19535 ft 409 kts 125°
2026-04-22 19:30 7.46735 157.04961 19192 ft 407 kts 125°
2026-04-22 19:30 7.44597 157.08101 18507 ft 404 kts 125°
2026-04-22 19:30 7.43029 157.10403 17971 ft 402 kts 125°
2026-04-22 19:30 7.41449 157.12724 17427 ft 399 kts 125°
2026-04-22 19:31 7.39885 157.15020 16912 ft 395 kts 125°
2026-04-22 19:31 7.38334 157.17295 16421 ft 392 kts 125°
2026-04-22 19:31 7.36799 157.19548 15920 ft 388 kts 125°
2026-04-22 19:31 7.35253 157.21769 15436 ft 384 kts 126°
2026-04-22 19:32 7.33727 157.23969 14947 ft 382 kts 124°
2026-04-22 19:32 7.32218 157.26164 14441 ft 380 kts 124°
2026-04-22 19:32 7.30738 157.28355 13954 ft 378 kts 124°
2026-04-22 19:32 7.29267 157.30543 13438 ft 376 kts 124°
2026-04-22 19:33 7.27805 157.32712 12928 ft 372 kts 124°
2026-04-22 19:33 7.26350 157.34862 12446 ft 369 kts 124°
2026-04-22 19:33 7.24905 157.36988 11971 ft 366 kts 124°
2026-04-22 19:33 7.23473 157.39091 11493 ft 363 kts 124°
2026-04-22 19:34 7.22068 157.41153 11046 ft 360 kts 124°
2026-04-22 19:34 7.20665 157.43209 10820 ft 350 kts 124°
2026-04-22 19:34 7.19310 157.45194 10651 ft 339 kts 124°
2026-04-22 19:34 7.17995 157.47120 10500 ft 329 kts 124°
2026-04-22 19:35 7.16714 157.48997 10355 ft 319 kts 124°
2026-04-22 19:35 7.15473 157.50815 10222 ft 310 kts 124°
2026-04-22 19:35 7.14673 157.51987 10140 ft 304 kts 124°
2026-04-22 19:35 7.13100 157.54290 9974 ft 293 kts 124°
2026-04-22 19:36 7.11976 157.55937 9886 ft 283 kts 124°
2026-04-22 19:36 7.10853 157.57582 9465 ft 287 kts 124°
2026-04-22 19:36 7.09728 157.59230 9158 ft 286 kts 124°
2026-04-22 19:36 7.08606 157.60872 8861 ft 284 kts 124°
2026-04-22 19:37 7.07487 157.62512 8570 ft 283 kts 123°
2026-04-22 19:37 7.06374 157.64141 8280 ft 282 kts 123°
2026-04-22 19:37 7.05268 157.65764 7988 ft 280 kts 123°
2026-04-22 19:37 7.04162 157.67377 7713 ft 279 kts 124°
2026-04-22 19:38 7.03041 157.68967 7418 ft 278 kts 122°
2026-04-22 19:38 7.02251 157.70724 7121 ft 276 kts 102°
2026-04-22 19:38 7.01989 157.72628 6859 ft 274 kts 95°
2026-04-22 19:38 7.01806 157.74538 6564 ft 274 kts 95°
2026-04-22 19:39 7.01630 157.76443 6286 ft 273 kts 95°
2026-04-22 19:39 7.01451 157.78344 5992 ft 272 kts 95°
2026-04-22 19:39 7.01227 157.80229 5702 ft 270 kts 96°
2026-04-22 19:39 7.01046 157.82107 5429 ft 268 kts 94°
2026-04-22 19:40 7.00885 157.83969 5141 ft 264 kts 94°
2026-04-22 19:40 7.00713 157.85783 4883 ft 256 kts 94°
2026-04-22 19:40 7.00540 157.87545 4616 ft 249 kts 94°
2026-04-22 19:40 7.00369 157.89264 4362 ft 246 kts 94°
2026-04-22 19:41 7.00197 157.90981 4154 ft 246 kts 94°
2026-04-22 19:41 7.00025 157.92692 4051 ft 245 kts 94°
2026-04-22 19:41 6.99854 157.94378 3921 ft 237 kts 94°
2026-04-22 19:41 6.99689 157.95962 3811 ft 225 kts 95°
2026-04-22 19:42 6.99519 157.97501 3717 ft 219 kts 96°
2026-04-22 19:42 6.99364 157.99015 3635 ft 217 kts 93°
2026-04-22 19:42 6.99219 158.00551 3440 ft 222 kts 93°
2026-04-22 19:42 6.99069 158.02086 3221 ft 219 kts 94°
2026-04-22 19:43 6.98779 158.05104 2733 ft 216 kts 91°
2026-04-22 19:43 6.98633 158.06602 2508 ft 214 kts 96°
2026-04-22 19:43 6.98548 158.08082 2277 ft 211 kts 87°
2026-04-22 19:44 6.98579 158.09558 1987 ft 211 kts 90°
2026-04-22 19:44 6.98537 158.11016 1724 ft 205 kts 90°
2026-04-22 19:44 6.98551 158.12417 1529 ft 192 kts 91°
2026-04-22 19:44 6.98520 158.13703 1416 ft 176 kts 91°
2026-04-22 19:45 6.98518 158.14884 1124 ft 167 kts 88°
2026-04-22 19:45 6.98520 158.16032 807 ft 160 kts 90°
2026-04-22 19:45 6.98503 158.17099 659 ft 148 kts 89°
2026-04-22 19:45 6.98502 158.17345 624 ft 147 kts 89°
2026-04-22 19:46 6.98501 158.18145 422 ft 145 kts 87°
2026-04-22 19:46 6.98517 158.19147 212 ft 142 kts 87°
2026-04-22 19:46 6.98514 158.20150 33 ft 143 kts 89°
2026-04-22 19:46 6.98510 158.21030 17 ft 100 kts 90°
2026-04-22 19:47 6.98509 158.21511 17 ft 38 kts 91°
2026-04-22 19:47 6.98507 158.21591 17 ft 0 kts 90°
2026-04-22 19:47 6.98501 158.21624 17 ft 16 kts 93°
2026-04-22 19:47 6.98512 158.21521 17 ft 33 kts 265°
2026-04-22 19:48 6.98512 158.21257 16 ft 38 kts 271°
2026-04-22 19:48 6.98507 158.21001 17 ft 35 kts 266°
2026-04-22 19:48 6.98513 158.20760 16 ft 33 kts 270°
2026-04-22 19:48 6.98513 158.20537 17 ft 31 kts 270°
2026-04-22 19:49 6.98490 158.20349 16 ft 18 kts 191°
2026-04-22 19:49 6.98405 158.20357 18 ft 18 kts 176°
2026-04-22 19:49 6.98283 158.20361 19 ft 16 kts 165°
2026-04-22 19:49 6.98217 158.20395 17 ft 10 kts 179°
2026-04-22 19:50 6.98191 158.20395 16 ft 4 kts 178°
2026-04-22 19:50 6.98184 158.20395 22 ft 0 kts 178°